• In Hungary
  • List of Countries
  • For 7 days
  • Water Temperature
  • Satellite Maps
  • Weather Map
  • News
  • Weather Widgets
  • user-avatar
    Login

    Hourly Weather El Guna

    Today, 21 September, Thursday

    Time Temperature Precipitation Wind Pressure Humidity
    00:00 +30°C° 0 mm 2 mps 732 mmHg 38%
    01:00 +30°C° 0 mm 2 mps 732 mmHg 38%
    02:00 +30°C° 0 mm 3 mps 732 mmHg 38%
    03:00 +29°C° 0 mm 3 mps 732 mmHg 38%
    04:00 +29°C° 0 mm 3 mps 732 mmHg 38%
    05:00 +28°C° 0 mm 3 mps 732 mmHg 39%
    06:00 +30°C° 0 mm 3 mps 732 mmHg 34%
    07:00 +31°C° 0 mm 3 mps 732 mmHg 30%
    08:00 +34°C° 0 mm 4 mps 732 mmHg 26%
    09:00 +36°C° 0 mm 5 mps 732 mmHg 23%
    10:00 +37°C° 0 mm 5 mps 732 mmHg 19%
    11:00 +39°C° 0 mm 5 mps 732 mmHg 16%
    12:00 +40°C° 0 mm 5 mps 732 mmHg 15%
    13:00 +41°C° 0 mm 5 mps 731 mmHg 14%
    14:00 +41°C° 0 mm 6 mps 731 mmHg 14%
    15:00 +40°C° 0 mm 6 mps 731 mmHg 15%
    16:00 +39°C° 0 mm 6 mps 731 mmHg 16%
    17:00 +39°C° 0 mm 6 mps 730 mmHg 16%
    18:00 +36°C° 0 mm 6 mps 730 mmHg 19%
    19:00 +35°C° 0 mm 5 mps 731 mmHg 22%
    20:00 +34°C° 0 mm 4 mps 731 mmHg 24%
    21:00 +33°C° 0 mm 4 mps 731 mmHg 26%
    22:00 +33°C° 0 mm 4 mps 731 mmHg 28%
    23:00 +32°C° 0 mm 4 mps 731 mmHg 29%

    Tomorrow, 22 September, Friday

    Time Temperature Precipitation Wind Pressure Humidity
    00:00 +30°C° 0 mm 4 mps 731 mmHg 30%
    01:00 +30°C° 0 mm 4 mps 731 mmHg 31%
    02:00 +29°C° 0 mm 4 mps 731 mmHg 32%
    03:00 +29°C° 0 mm 4 mps 731 mmHg 34%
    04:00 +28°C° 0 mm 4 mps 731 mmHg 35%
    05:00 +28°C° 0 mm 4 mps 731 mmHg 36%
    06:00 +29°C° 0 mm 5 mps 731 mmHg 34%
    07:00 +30°C° 0 mm 5 mps 731 mmHg 32%
    08:00 +33°C° 0 mm 6 mps 732 mmHg 30%
    09:00 +35°C° 0 mm 6 mps 732 mmHg 27%
    10:00 +36°C° 0 mm 6 mps 732 mmHg 23%
    11:00 +39°C° 0 mm 7 mps 732 mmHg 20%
    12:00 +40°C° 0 mm 7 mps 731 mmHg 19%
    13:00 +40°C° 0 mm 6 mps 731 mmHg 17%
    14:00 +41°C° 0 mm 6 mps 730 mmHg 16%
    15:00 +40°C° 0 mm 7 mps 730 mmHg 18%
    16:00 +40°C° 0 mm 7 mps 730 mmHg 19%
    17:00 +39°C° 0 mm 7 mps 730 mmHg 21%
    18:00 +38°C° 0 mm 6 mps 730 mmHg 24%
    19:00 +35°C° 0 mm 6 mps 730 mmHg 28%
    20:00 +34°C° 0 mm 5 mps 731 mmHg 31%
    21:00 +33°C° 0 mm 5 mps 731 mmHg 34%
    22:00 +32°C° 0 mm 6 mps 731 mmHg 37%
    23:00 +32°C° 0 mm 6 mps 731 mmHg 40%

    Day after tomorrow, 23 September, Saturday

    Time Temperature Precipitation Wind Pressure Humidity
    00:00 +30°C° 0 mm 6 mps 731 mmHg 41%
    01:00 +30°C° 0 mm 6 mps 731 mmHg 42%
    02:00 +29°C° 0 mm 5 mps 731 mmHg 42%
    03:00 +29°C° 0 mm 5 mps 731 mmHg 41%
    04:00 +28°C° 0 mm 5 mps 731 mmHg 40%
    05:00 +28°C° 0 mm 5 mps 731 mmHg 39%
    06:00 +29°C° 0 mm 5 mps 731 mmHg 35%
    07:00 +30°C° 0 mm 6 mps 732 mmHg 31%
    08:00 +33°C° 0 mm 6 mps 732 mmHg 28%
    09:00 +34°C° 0 mm 6 mps 732 mmHg 26%
    10:00 +36°C° 0 mm 6 mps 732 mmHg 23%
    11:00 +38°C° 0 mm 7 mps 732 mmHg 21%
    12:00 +39°C° 0 mm 7 mps 731 mmHg 21%
    13:00 +39°C° 0 mm 7 mps 731 mmHg 20%
    14:00 +40°C° 0 mm 7 mps 730 mmHg 20%
    15:00 +39°C° 0 mm 7 mps 730 mmHg 21%
    16:00 +38°C° 0 mm 7 mps 730 mmHg 23%
    17:00 +36°C° 0 mm 7 mps 730 mmHg 25%
    18:00 +35°C° 0 mm 6 mps 730 mmHg 27%
    19:00 +34°C° 0 mm 6 mps 730 mmHg 29%
    20:00 +33°C° 0 mm 5 mps 731 mmHg 31%
    21:00 +32°C° 0 mm 5 mps 731 mmHg 34%
    22:00 +30°C° 0 mm 5 mps 731 mmHg 37%
    23:00 +29°C° 0 mm 5 mps 731 mmHg 40%

    24 September, Sunday

    Time Temperature Precipitation Wind Pressure Humidity
    00:00 +29°C° 0 mm 5 mps 731 mmHg 42%
    01:00 +28°C° 0 mm 5 mps 731 mmHg 44%
    02:00 +27°C° 0 mm 4 mps 731 mmHg 45%
    03:00 +27°C° 0 mm 4 mps 731 mmHg 46%
    04:00 +26°C° 0 mm 4 mps 731 mmHg 47%
    05:00 +26°C° 0 mm 4 mps 731 mmHg 48%
    06:00 +27°C° 0 mm 4 mps 731 mmHg 45%
    07:00 +28°C° 0 mm 5 mps 732 mmHg 42%
    08:00 +29°C° 0 mm 5 mps 732 mmHg 38%
    09:00 +30°C° 0 mm 5 mps 732 mmHg 34%
    10:00 +33°C° 0 mm 4 mps 732 mmHg 31%
    11:00 +35°C° 0 mm 4 mps 732 mmHg 27%
    12:00 +36°C° 0 mm 4 mps 732 mmHg 25%
    13:00 +36°C° 0 mm 5 mps 731 mmHg 23%
    14:00 +37°C° 0 mm 5 mps 731 mmHg 21%
    15:00 +36°C° 0 mm 5 mps 731 mmHg 24%
    16:00 +36°C° 0 mm 5 mps 731 mmHg 26%
    17:00 +35°C° 0 mm 5 mps 731 mmHg 28%
    18:00 +34°C° 0 mm 4 mps 731 mmHg 32%
    19:00 +32°C° 0 mm 4 mps 732 mmHg 36%
    20:00 +30°C° 0 mm 3 mps 732 mmHg 40%
    21:00 +30°C° 0 mm 3 mps 732 mmHg 40%
    22:00 +29°C° 0 mm 3 mps 732 mmHg 40%
    23:00 +29°C° 0 mm 3 mps 732 mmHg 40%

    25 September, Monday

    Time Temperature Precipitation Wind Pressure Humidity
    00:00 +29°C° 0 mm 3 mps 732 mmHg 40%
    01:00 +28°C° 0 mm 3 mps 731 mmHg 41%
    02:00 +28°C° 0 mm 3 mps 731 mmHg 42%
    03:00 +27°C° 0 mm 3 mps 731 mmHg 44%
    04:00 +27°C° 0 mm 3 mps 731 mmHg 46%
    05:00 +26°C° 0 mm 3 mps 731 mmHg 49%
    06:00 +27°C° 0 mm 4 mps 732 mmHg 45%
    07:00 +29°C° 0 mm 4 mps 732 mmHg 41%
    08:00 +30°C° 0 mm 4 mps 733 mmHg 37%
    09:00 +33°C° 0 mm 4 mps 733 mmHg 31%
    10:00 +34°C° 0 mm 4 mps 733 mmHg 26%
    11:00 +36°C° 0 mm 4 mps 733 mmHg 21%
    12:00 +37°C° 0 mm 4 mps 732 mmHg 18%
    13:00 +39°C° 0 mm 5 mps 732 mmHg 16%
    14:00 +39°C° 0 mm 5 mps 731 mmHg 13%
    15:00 +39°C° 0 mm 5 mps 731 mmHg 14%
    16:00 +38°C° 0 mm 6 mps 731 mmHg 14%
    17:00 +36°C° 0 mm 6 mps 731 mmHg 15%
    18:00 +34°C° 0 mm 5 mps 732 mmHg 17%
    19:00 +33°C° 0 mm 4 mps 732 mmHg 19%
    20:00 +30°C° 0 mm 4 mps 732 mmHg 21%
    21:00 +30°C° 0 mm 4 mps 732 mmHg 21%
    22:00 +29°C° 0 mm 4 mps 732 mmHg 21%
    23:00 +29°C° 0 mm 4 mps 732 mmHg 21%

    26 September, Tuesday

    Time Temperature Precipitation Wind Pressure Humidity
    00:00 +28°C° 0 mm 4 mps 732 mmHg 24%
    01:00 +28°C° 0 mm 4 mps 732 mmHg 27%
    02:00 +28°C° 0 mm 4 mps 731 mmHg 29%
    03:00 +27°C° 0 mm 4 mps 732 mmHg 32%
    04:00 +27°C° 0 mm 4 mps 732 mmHg 34%
    05:00 +26°C° 0 mm 4 mps 732 mmHg 37%
    06:00 +28°C° 0 mm 4 mps 732 mmHg 35%
    07:00 +29°C° 0 mm 5 mps 733 mmHg 33%
    08:00 +30°C° 0 mm 5 mps 733 mmHg 31%
    09:00 +33°C° 0 mm 5 mps 733 mmHg 26%
    10:00 +35°C° 0 mm 6 mps 733 mmHg 21%
    11:00 +36°C° 0 mm 6 mps 733 mmHg 16%
    12:00 +38°C° 0 mm 6 mps 732 mmHg 15%
    13:00 +38°C° 0 mm 7 mps 732 mmHg 14%
    14:00 +39°C° 0 mm 7 mps 731 mmHg 12%
    15:00 +38°C° 0 mm 7 mps 731 mmHg 14%
    16:00 +36°C° 0 mm 7 mps 732 mmHg 15%
    17:00 +35°C° 0 mm 7 mps 732 mmHg 17%
    18:00 +34°C° 0 mm 6 mps 732 mmHg 19%
    19:00 +33°C° 0 mm 5 mps 732 mmHg 20%
    20:00 +30°C° 0 mm 4 mps 732 mmHg 22%
    21:00 +30°C° 0 mm 4 mps 732 mmHg 23%
    22:00 +29°C° 0 mm 4 mps 732 mmHg 24%
    23:00 +28°C° 0 mm 4 mps 732 mmHg 26%
    Show more